sat.trackr.live / text

‹ back to catalog

DUBAISAT-2

NORAD 39419 · 2013-066D

PAYLOAD ACTIVE UNKNOWN

§ Identity

Operator
Country
UAE
Launch date
2013-11-21
Launch site
DLS
Launch vehicle
Mass (kg)
RCS (m²)
1.78

Purposes: earth_obs

External: N2YO · Heavens-Above · Gunter

§ Orbital elements

Epoch: 2026-05-25T05:02:24.909792Z

Period
95.37 min
Inclination
97.4561°
Eccentricity
0.0013015
Mean motion
15.09979072 rev/d
Perigee alt
527.3 km
Apogee alt
545.3 km
Semi-major
6,914.4 km
B*
1.2562e-4
RAAN
135.9614°
Arg perigee
108.9433°
Mean anomaly
251.3208°
Rev number
68,292

§ Raw data

DUBAISAT-21 39419U 13066D   26145.21001053  .00001981  00000+0  12562-3 0  99992 39419  97.4561 135.9614 0013015 108.9433 251.3208 15.09979072682924

JSON: /api/v1/satellites/39419 · /tle

For live sub-satellite position, see the globe view (requires WebGL).

§ Visibility from observer

Set your observer location to see the next 7 days of passes ≥ 10°. The values pass through the URL so the page stays shareable.

No JS? Fill the form by hand. The geolocation button needs JavaScript.